EW2082 Weather Reports


time (UTC)temp
F
wind
direction
speed
knots
gust
knots
rain 1hr
in
rain 24hr
in
rain mn
in
humidity
%
barometer
mb
20260906143003 66 237 0.0 0.0 0.00 0.00 0.08 89 1013.0
20260906142004 66 237 0.0 0.0 0.00 0.00 0.07 88 1013.3
20260906141003 66 237 0.0 0.9 0.00 0.00 0.07 86 1013.3
20260906140005 66 87 0.0 0.9 0.00 0.00 0.07 84 1013.3
20260906135003 67 24 0.0 2.6 0.00 0.00 0.07 83 1012.8
20260906134003 69 258 0.0 3.5 0.00 0.00 0.05 86 1012.7
20260906132003 69 285 0.0 0.9 0.00 0.00 0.03 88 1013.0
20260906131004 69 285 0.0 0.9 0.00 0.00 0.03 87 1012.8
20260906130005 69 283 0.0 2.6 0.00 0.00 0.03 86 1012.8
20260906125004 69 301 0.0 2.6 0.00 0.00 0.03 84 1012.7
20260906124003 70 309 1.7 4.3 0.00 0.00 0.03 86 1012.5
20260906122003 70 283 0.0 0.0 0.00 0.00 0.02 80 1012.2
20260906121004 71 283 0.0 0.0 0.00 0.00 0.02 74 1011.9
20260906120005 71 283 0.0 0.0 0.00 0.00 0.00 69 1011.6
20260906115003 71 283 0.0 0.0 0.00 0.00 0.00 66 1011.6
20260906114004 71 283 0.0 0.0 0.00 0.00 0.00 66 1011.5
20260906113005 71 283 0.0 0.0 0.00 0.00 0.00 66 1011.3
20260906111004 71 283 0.0 0.0 0.00 0.00 0.00 73 1011.6
20260906110005 71 283 0.0 0.0 0.00 0.00 0.00 74 1011.5
20260906105004 71 283 0.0 0.0 0.00 0.00 0.00 75 1011.5
20260906103004 71 283 0.0 0.0 0.00 0.00 0.00 76 1011.6
20260906102004 70 283 0.0 0.0 0.00 0.00 0.00 77 1011.5
20260906101004 70 283 0.0 0.0 0.00 0.00 0.00 78 1011.7
20260906100005 70 283 0.0 0.0 0.00 0.00 0.00 79 1011.5
20260906095006 70 283 0.0 0.0 0.00 0.00 0.00 79 1011.5
20260906094004 70 283 0.0 0.0 0.00 0.00 0.00 79 1011.6
20260906092004 70 283 0.0 0.0 0.00 0.00 0.00 80 1011.7
20260906091005 70 283 0.0 0.0 0.00 0.00 0.00 80 1011.7
20260906090005 70 283 0.0 0.0 0.00 0.00 0.00 82 1011.7
20260906085004 70 283 0.0 0.0 0.00 0.00 0.00 82 1011.7
20260906084004 70 283 0.0 0.0 0.00 0.00 0.00 82 1011.8
20260906083004 70 283 0.0 0.0 0.00 0.00 0.00 81 1011.9
20260906082004 70 283 0.0 0.0 0.00 0.00 0.00 81 1011.9
20260906081004 70 283 0.0 0.0 0.00 0.00 0.00 79 1012.0
20260906080005 70 283 0.0 0.0 0.00 0.00 0.00 78 1012.0
20260906075004 69 283 0.0 0.0 0.00 0.00 0.00 77 1011.9
20260906074004 69 283 0.0 0.0 0.00 0.00 0.00 76 1012.0
20260906073004 69 283 0.0 0.0 0.00 0.00 0.00 77 1012.0
20260906071004 70 283 0.0 0.0 0.00 0.00 0.00 79 1012.0
20260906070006 71 283 0.0 0.0 0.00 0.00 0.00 80 1011.9
20260906065004 71 283 0.0 0.0 0.00 0.00 0.00 81 1011.7
20260906064004 71 283 0.0 0.0 0.00 0.00 0.00 80 1011.8
20260906062004 71 283 0.0 0.0 0.00 0.00 0.00 81 1011.9
20260906061004 71 283 0.0 0.0 0.00 0.00 0.00 81 1012.0
20260906060004 72 283 0.0 0.9 0.00 0.00 0.00 82 1012.0
20260906055004 72 278 0.0 0.9 0.00 0.00 0.00 82 1011.9
20260906052004 72 276 0.0 0.9 0.00 0.00 0.00 83 1012.2
20260906051003 72 282 0.0 0.9 0.00 0.00 0.00 84 1012.3
20260906050004 72 282 0.0 0.9 0.00 0.00 0.00 83 1012.3
20260906045004 72 283 0.0 0.9 0.00 0.00 0.00 83 1012.3
20260906043004 72 4 0.0 0.9 0.00 0.00 0.00 81 1012.2
20260906042004 72 333 0.9 0.9 0.00 0.00 0.00 81 1012.2
20260906041004 72 4 0.0 0.9 0.00 0.00 0.00 82 1012.1
20260906040004 72 273 0.0 2.6 0.00 0.00 0.00 83 1012.1
20260906035003 72 91 0.0 1.7 0.00 0.00 0.00 83 1012.0
20260906033004 73 43 0.0 1.7 0.00 0.00 0.00 83 1011.8
20260906032003 73 321 0.0 1.7 0.00 0.00 0.00 82 1011.7
20260906031003 73 6 0.0 0.9 0.00 0.00 0.00 82 1011.6
20260906030004 73 295 0.0 1.7 0.00 0.00 0.00 82 1011.6
20260906024003 74 332 0.0 1.7 0.00 0.00 0.00 82 1011.4
20260906023004 74 30 0.0 1.7 0.00 0.00 0.00 81 1011.5
20260906020004 75 246 0.9 3.5 0.00 0.00 0.00 78 1011.4
20260906015004 76 18 0.0 2.6 0.00 0.00 0.00 78 1011.5
20260906014004 76 263 0.0 1.7 0.00 0.00 0.00 76 1011.4
20260906013004 78 356 0.0 1.7 0.00 0.00 0.00 74 1011.4
20260906012005 78 276 0.0 6.1 0.00 0.00 0.00 70 1011.2
20260906005003 78 345 0.0 4.3 0.00 0.00 0.00 71 1011.2
20260906004003 79 357 0.0 3.5 0.00 0.00 0.00 69 1011.2
20260906003003 80 56 0.0 1.7 0.00 0.00 0.00 67 1011.0
20260906002004 80 293 0.0 3.5 0.00 0.00 0.00 65 1011.1
20260906001003 81 20 0.0 0.9 0.00 0.00 0.00 63 1011.0
20260906000004 82 81 0.0 4.3 0.00 0.00 0.00 59 1011.0
20260905235003 84 39 0.0 1.7 0.00 0.00 0.00 55 1011.0
20260905234003 85 13 0.9 3.5 0.00 0.00 0.00 52 1010.9
20260905232003 87 263 0.0 2.6 0.00 0.00 0.00 51 1010.9
20260905231003 87 49 0.0 1.7 0.00 0.00 0.00 49 1011.0
20260905230005 88 25 0.0 0.0 0.00 0.00 0.00 46 1011.1
20260905225005 88 256 0.0 0.9 0.00 0.00 0.00 43 1011.2
20260905224004 88 70 0.0 1.7 0.00 0.00 0.00 47 1011.3
20260905223005 89 15 0.0 2.6 0.00 0.00 0.00 48 1011.4
20260905222004 88 332 0.0 0.9 0.00 0.00 0.00 50 1011.5
20260905221004 88 13 0.0 3.5 0.00 0.00 0.00 48 1011.6
20260905215005 91 294 0.0 3.5 0.00 0.00 0.00 45 1011.8
20260905214005 91 266 0.0 0.9 0.00 0.00 0.00 46 1011.9
20260905213004 91 251 0.0 2.6 0.00 0.00 0.00 45 1012.1
20260905212004 91 11 0.0 0.0 0.00 0.00 0.00 44 1012.2
20260905211004 90 353 0.0 0.9 0.00 0.00 0.00 45 1012.2
20260905210006 90 321 0.0 1.7 0.00 0.00 0.00 47 1012.3
20260905204004 89 314 1.7 2.6 0.00 0.00 0.00 50 1012.6
20260905203004 89 12 0.0 2.6 0.00 0.00 0.00 49 1012.7
20260905202005 89 60 0.0 1.7 0.00 0.00 0.00 50 1012.7
20260905201005 89 26 0.0 0.9 0.00 0.00 0.00 51 1012.9
20260905200006 89 240 0.0 0.9 0.00 0.00 0.00 49 1013.0
20260905195004 89 172 0.0 0.0 0.00 0.00 0.00 50 1013.2
20260905194005 89 196 0.0 0.9 0.00 0.00 0.00 50 1013.2
20260905193004 89 253 0.0 0.0 0.00 0.00 0.00 51 1013.2
20260905192005 88 214 0.0 0.0 0.00 0.00 0.00 49 1013.3
20260905190005 87 169 0.0 0.9 0.00 0.00 0.00 50 1013.5
20260905185004 87 297 0.0 0.9 0.00 0.00 0.00 51 1013.8
20260905184004 86 23 0.0 0.9 0.00 0.00 0.00 43 1013.9
20260905182004 84 205 0.0 0.0 0.00 0.00 0.00 50 1014.0
20260905181006 84 41 0.0 0.0 0.00 0.00 0.00 51 1014.0
20260905180005 84 198 0.0 0.0 0.00 0.00 0.00 53 1014.0
20260905174004 82 185 0.0 0.0 0.00 0.00 0.00 56 1013.9
20260905173004 81 184 0.0 0.9 0.00 0.00 0.00 60 1013.8
20260905172005 80 111 0.0 0.0 0.00 0.00 0.00 61 1013.8
20260905171004 79 94 0.0 0.0 0.00 0.00 0.00 62 1013.8
20260905170005 78 44 0.0 0.0 0.00 0.00 0.00 65 1013.8
20260905165005 78 48 0.0 0.9 0.00 0.00 0.00 68 1013.8
20260905164004 77 48 0.0 1.7 0.00 0.00 0.00 69 1013.8
20260905162004 79 26 0.0 0.0 0.00 0.00 0.00 66 1013.8
20260905161005 78 146 0.0 0.0 0.00 0.00 0.00 70 1013.8
20260905160005 77 146 0.0 0.0 0.00 0.00 0.00 72 1013.7
20260905155004 77 144 0.0 0.0 0.00 0.00 0.00 72 1013.6
20260905153004 74 144 0.0 0.0 0.00 0.00 0.00 79 1013.5
20260905152004 73 144 0.0 0.0 0.00 0.00 0.00 82 1013.4
20260905150005 69 144 0.0 0.9 0.00 0.00 0.00 91 1013.4
20260905144004 66 142 0.0 0.0 0.00 0.00 0.00 95 1013.2